Regional Weather Roundup
Issued by NWS

Home | Current Version | Previous Version | Text Only | Print | Product List | Glossary Off
Versions: 1 2 3 4 5 6 7 8 9 10 11 12 13 14 15 16 17 18 19 20 21 22 23 24 25 26 27 28 29 30 31 32 33 34 35 36 37 38 39 40 41 42 43 44 45 46 47 48 49 50

000
ASUS43 KFSD 270702
RWRSD

WEATHER ROUNDUP FOR SOUTH DAKOTA
NATIONAL WEATHER SERVICE SIOUX FALLS SD
100 AM CST SAT DEC 27 2014

NOTE: "FAIR" INDICATES FEW OR NO CLOUDS BELOW 12,000 FEET WITH NO
SIGNIFICANT WEATHER AND/OR OBSTRUCTIONS TO VISIBILITY.


SDZ001>005-009-010-012>017-270800-
NORTHWEST AND NORTH CENTRAL SOUTH DAKOTA

CITY           SKY/WX    TMP DP  RH WIND       PRES   REMARKS
BUFFALO          N/A     14   9  80 W6        30.02F WCI   5
FAITH            N/A     11   6  81 W8        30.12F WCI  -1
MOBRIDGE       PTCLDY     0  -3  87 N3        30.15S
$$

SDZ012>016-024>037-041>051-057-063-072>074-270800-
SOUTHWEST AND SOUTH CENTRAL SOUTH DAKOTA

CITY           SKY/WX    TMP DP  RH WIND       PRES   REMARKS
RAPID CTY ARPT PTCLDY     8   4  83 NW7       30.13S WCI  -3
PIERRE         PTCLDY     8   5  87 NW3       30.17F
CUSTER         PTCLDY     7   0  73 NW7       29.97S WCI  -5
ELLSWORTH AFB  PTCLDY     6   1  80 W6        30.11F WCI  -5
PHILIP         MOCLDY     8   3  80 W10       30.17F WCI  -6
PINE RIDGE     CLOUDY    17  12  80 W5        30.13S WCI  10
WINNER         LGT SNOW  17  13  84 NW7       30.16F FOG     WCI   8
$$

SDZ004>011-016>023-039-040-270800-
NORTHEAST SOUTH DAKOTA

CITY           SKY/WX    TMP DP  RH WIND       PRES   REMARKS
ABERDEEN       MOCLDY     8   4  83 N5        30.20F WCI   0
WATERTOWN      CLOUDY    17  14  88 N13       30.11S WCI   4
SISSETON         N/A      8   5  87 N16       30.17F WCI -10
$$

SDZ017-020-022-023-036>040-048>070-270800-
SOUTHEAST SOUTH DAKOTA

CITY           SKY/WX    TMP DP  RH WIND       PRES   REMARKS
SIOUX FALLS    LGT SNOW  22  18  85 N15       30.08S FOG     WCI   9
HURON          LGT SNOW  15  11  83 N13       30.17F FOG     WCI   1
MITCHELL       LGT SNOW  18  15  88 NW17      30.17S FOG     WCI   3
YANKTON        CLOUDY    21  18  86 NW16      30.13S WCI   7
$$

ABBREVIATIONS USED IN REMARKS
   TC - TEMPERATURE IN CELSIUS
  WCI - WIND CHILL INDEX
   HX - HEAT INDEX
  VSB - VISIBILITY



USA.gov is the U.S. government's official web portal to all federal, state and local government web resources and services.